Welcome to Bucharest LROP 150630Z 05022KT 1900 SN BR BKN006 OVC023 M01/M02 Q1022 R08R/590393 R08L/590294 TEMPO 1500 SN

 

Down the Danube 7 - 21.04.2018, 16z - 21z

Spring is usually a time of nature revival: flowers bloom, birds start singing again, people throw away their winter clothes, airplanes... well airplanes request 10 degrees to the right to avoid CB.

Welcome to ROvACC's spring overload event. This year it will be the the 21st of April, from 16 to 21 ZULU TIME

Come and fly into and out of Bucharest Romania (LROP/OTP) and have fun flying in a high traffic situation. We'll enjoy controlling you and we promise no holdings... as much as practicable, at least :)

You can take a domestic or an international, a short or a long flight, use your favourite plane or try a new one, fly with your virtual airline or leave it to faith to decide your flight details. Go to the booking page and push the "I feel lucky" button to get a real life flight happening as we speak

Be sure to check our Pilot Briefing guide, our charts and the sceneries available for Bucharest Henri Coanda International Airport as well as other airports in LRBB FIR.

days
hours
minutes
Arrivals 12 out of 60
20% arrivals booked
Departures 4 out of 60
7% departures booked
BOOK NOW PILOT BRIEFING

Please note!

This website is intended for flight simulation only. Information presented here should not be used in real life flight situations.